星链-5536 (STARLINK-5536 )

导读

STARLINK-5536是美国SpaceX公司于2023年6月22日发射的星链(Starlink)星座卫星之一,属于星链低轨互联网星座的组网卫星。该卫星运行在高度约550公里的近地轨道,主要为地面提供高速卫星互联网接入服务,能为偏远地区、海上、空中等传统网络覆盖不足区域提供低延迟宽带通信支持,是星链全球覆盖计划的重要组成部分,退役后会按计划快速离轨减少太空垃圾。

基本信息
目录编号:
57062
目录名称:
STARLINK-5536
国际标识:
2023-088Q
轨道中心:
EARTH
卫星名称:
星链-5536
卫星全名:
星链-5536 (STARLINK-5536 )
卫星状态:
在轨 (已飞行1089 天)
发射日期:
2023-06-22 UTC
国别 :
美国 (US)
星等 :
--
轨道信息
数据来源 国际轨道数据
星历时间: 2026-06-14T08:39:14+0800
1天前
查看轨道信息
半长轴: 6861.257km
偏心率: 0.0001425
轨道倾角: 43.003°
近地点辐角 253.551°
升交点赤经 272.062°
平近点角 106.518°
近地点: 482.142km
远地点: 484.098km
周期: 94.268分钟
每日圈数: 15.275566
详细信息
固有亮度:
5
最大亮度:
2.4
卫星平台:
Starlink v1.5
覆盖范围:
全球
运营商:
太空探索技术公司
运营商所在国:
美国
制造商(研发单位):
太空探索技术公司
制造商所在国:
美国
使用方式:
暂无
卫星简介
星链(Starlink)计划是由太空探索技术公司(SpaceX)提出的一个巨型低轨卫星互联网星座项目,计划在2019年至2024年间在太空搭建由约1.2万颗卫星组成的“星链”网络,其中1584颗将部署在地球上空550千米处的近地轨道,并从2020年开始工作。该卫星仍在工作。
2D轨道图
3D轨道图
轨道高度分析图
轨道倾角分析图
轨道综合分析图
查看轨道综合分析图